CW8014 Weather Reports


Display with metric or nautical units.
time (UTC)temp
F
wind
direction
speed
MPH
gust
MPH
rain 1hr
in
rain 24hr
in
rain mn
in
humidity
%
barometer
mb
20260902005407 52 185 0.0 2.0 0.00 0.00 0.00 95 1019.9
20260902004407 52 202 1.0 3.0 0.00 0.00 0.00 95 1019.9
20260902003407 53 250 0.0 2.0 0.00 0.00 0.00 94 1020.0
20260902002407 53 250 0.0 1.0 0.00 0.00 0.00 95 1019.9
20260902001407 53 250 0.0 0.0 0.00 0.00 0.00 94 1019.9
20260902000408 53 250 0.0 0.0 0.00 0.00 0.00 94 1020.0
20260901235407 53 250 0.0 0.0 0.00 0.00 0.00 94 1020.0
20260901234407 53 250 0.0 1.0 0.00 0.00 0.00 94 1019.9
20260901233407 53 250 0.0 0.0 0.00 0.00 0.00 94 1019.9
20260901232407 53 250 0.0 1.0 0.00 0.00 0.00 93 1019.8
20260901230407 54 250 0.0 0.0 0.00 0.00 0.00 93 1020.1
20260901224407 54 250 0.0 1.0 0.00 0.00 0.00 93 1020.3
20260901223407 54 250 0.0 1.0 0.00 0.00 0.00 93 1020.3
20260901222408 54 263 0.0 0.0 0.00 0.00 0.00 93 1020.6
20260901221407 55 263 0.0 1.0 0.00 0.00 0.00 93 1020.6
20260901220407 55 263 0.0 1.0 0.00 0.00 0.00 93 1020.7
20260901215411 55 263 0.0 1.0 0.00 0.00 0.00 93 1020.6
20260901214410 55 263 0.0 1.0 0.00 0.00 0.00 92 1020.7
20260901213411 55 263 0.0 0.0 0.00 0.00 0.00 92 1020.8
20260901212410 55 263 0.0 2.0 0.00 0.00 0.00 92 1020.8
20260901211410 55 263 0.0 1.0 0.00 0.00 0.00 92 1020.8
20260901205410 56 263 0.0 1.0 0.00 0.00 0.00 91 1020.6
20260901204411 56 263 0.0 1.0 0.00 0.00 0.00 91 1020.4
20260901203410 56 263 0.0 1.0 0.00 0.00 0.00 90 1020.4
20260901202410 56 263 0.0 1.0 0.00 0.00 0.00 89 1020.3
20260901201411 57 263 0.0 0.0 0.00 0.00 0.00 88 1020.2
20260901200410 57 263 0.0 1.0 0.00 0.00 0.00 88 1020.3
20260901195410 57 263 0.0 1.0 0.00 0.00 0.00 87 1020.3
20260901194410 58 263 0.0 2.0 0.00 0.00 0.00 86 1020.2
20260901193410 58 263 0.0 1.0 0.00 0.00 0.00 85 1020.2
20260901192410 59 263 0.0 2.0 0.00 0.00 0.00 84 1020.3
20260901190410 60 265 0.0 3.0 0.00 0.00 0.00 82 1020.3
20260901183410 62 273 1.0 3.0 0.00 0.00 0.00 77 1020.2
20260901182410 63 275 2.0 4.0 0.00 0.00 0.00 75 1020.1
20260901181410 63 300 2.0 6.0 0.00 0.00 0.00 74 1020.0
20260901180410 64 264 3.0 8.0 0.00 0.00 0.00 74 1020.1
20260901175410 64 275 4.0 10.0 0.00 0.00 0.00 73 1020.0
20260901174410 65 312 3.0 7.0 0.00 0.00 0.00 73 1019.9
20260901172410 65 311 2.0 6.0 0.00 0.00 0.00 71 1019.8
20260901170411 67 286 3.0 8.0 0.00 0.00 0.00 69 1019.6
20260901165410 67 289 2.0 9.0 0.00 0.00 0.00 70 1019.5
20260901164410 67 290 4.0 8.0 0.00 0.00 0.00 68 1019.5
20260901163410 68 287 6.0 13.0 0.00 0.00 0.00 65 1019.5
20260901160411 68 234 5.0 13.0 0.00 0.00 0.00 66 1019.5
20260901155410 69 298 7.0 16.0 0.00 0.00 0.00 63 1019.3
20260901154410 68 279 6.0 11.0 0.00 0.00 0.00 65 1019.3
20260901150410 69 294 8.0 16.0 0.00 0.00 0.00 63 1019.1
20260901145410 69 283 6.0 14.0 0.00 0.00 0.00 62 1019.1
20260901144410 69 338 5.0 11.0 0.00 0.00 0.00 62 1019.1
20260901143410 71 309 6.0 12.0 0.00 0.00 0.00 59 1019.1
20260901142404 72 289 8.0 16.0 0.00 0.00 0.00 57 1019.0
20260901141404 71 321 6.0 17.0 0.00 0.00 0.00 62 1018.9
20260901140406 72 211 8.0 14.0 0.00 0.00 0.00 58 1018.9
20260901135405 72 271 6.0 13.0 0.00 0.08 0.00 59 1018.8
20260901134406 71 300 7.0 12.0 0.00 0.08 0.00 64 1018.8
20260901132404 71 286 5.0 18.0 0.00 0.08 0.00 61 1018.7
20260901131404 71 279 8.0 15.0 0.00 0.08 0.00 60 1018.8
20260901125404 71 311 7.0 15.0 0.00 0.09 0.00 62 1018.7
20260901124404 70 338 8.0 17.0 0.00 0.09 0.00 61 1018.7
20260901123404 72 321 7.0 13.0 0.00 0.09 0.00 66 1018.7
20260901122404 70 265 5.0 11.0 0.00 0.09 0.00 66 1018.6
20260901121404 68 331 7.0 18.0 0.00 0.09 0.00 67 1018.6
20260901120404 70 219 9.0 21.0 0.00 0.09 0.00 64 1018.7
20260901115404 69 257 6.0 16.0 0.00 0.11 0.00 68 1018.5
20260901113405 70 313 7.0 16.0 0.00 0.11 0.00 70 1018.6
20260901112405 69 339 7.0 14.0 0.00 0.11 0.00 71 1018.6
20260901111404 69 297 7.0 14.0 0.00 0.11 0.00 69 1018.6
20260901110404 69 248 8.0 15.0 0.00 0.11 0.00 70 1018.6
20260901105406 69 284 6.0 16.0 0.00 0.16 0.00 71 1018.6
20260901103404 68 284 5.0 13.0 0.00 0.16 0.00 74 1018.6
20260901102404 66 324 8.0 16.0 0.00 0.16 0.00 76 1018.7
20260901101404 66 295 6.0 14.0 0.00 0.16 0.00 77 1018.5
20260901100404 66 259 6.0 13.0 0.00 0.16 0.00 77 1018.6
20260901094404 65 281 6.0 13.0 0.00 0.16 0.00 78 1018.4
20260901093404 65 317 7.0 15.0 0.00 0.16 0.00 79 1018.3
20260901092404 66 305 7.0 15.0 0.00 0.16 0.00 79 1018.2
20260901091404 66 50 8.0 17.0 0.00 0.16 0.00 78 1018.1
20260901090404 66 242 8.0 17.0 0.00 0.16 0.00 77 1018.1
20260901085404 66 303 7.0 15.0 0.00 0.16 0.00 79 1017.9
20260901084405 66 277 6.0 15.0 0.00 0.16 0.00 79 1017.8
20260901081404 66 225 6.0 13.0 0.00 0.16 0.00 86 1017.5
20260901080404 65 254 4.0 12.0 0.00 0.16 0.00 88 1017.3
20260901074404 64 225 5.0 13.0 0.00 0.16 0.00 91 1017.2
20260901073404 63 293 5.0 13.0 0.00 0.16 0.00 92 1017.2
20260901072404 62 261 5.0 12.0 0.00 0.16 0.00 93 1017.1
20260901070404 61 258 4.0 11.0 0.00 0.16 0.00 95 1017.1
20260901065404 61 254 3.0 9.0 0.00 0.16 0.00 96 1017.0
20260901064404 60 290 4.0 9.0 0.00 0.16 0.00 96 1017.0
20260901062404 60 209 1.0 5.0 0.00 0.16 0.00 96 1016.8
20260901061405 60 294 2.0 6.0 0.00 0.16 0.00 96 1016.6
20260901060404 59 211 2.0 7.0 0.00 0.16 0.00 96 1016.5
20260901055404 59 209 2.0 5.0 0.00 0.16 0.00 96 1016.5
20260901054405 58 157 1.0 5.0 0.00 0.16 0.00 96 1016.5
20260901053404 58 190 1.0 3.0 0.00 0.16 0.00 96 1016.3
20260901052405 58 178 1.0 5.0 0.00 0.16 0.00 96 1016.3
20260901050404 58 209 1.0 3.0 0.00 0.16 0.00 96 1016.1
20260901045404 58 190 2.0 4.0 0.00 0.16 0.00 96 1016.1
20260901044404 58 229 2.0 5.0 0.00 0.16 0.00 96 1016.0
20260901043404 58 209 1.0 3.0 0.00 0.16 0.00 96 1016.0
20260901042404 58 160 2.0 5.0 0.00 0.16 0.00 96 1015.9
20260901040404 58 192 1.0 2.0 0.00 0.16 0.00 95 1015.6
20260901035404 59 189 1.0 3.0 0.00 0.17 0.00 96 1015.7
20260901034404 59 209 1.0 3.0 0.00 0.17 0.00 95 1015.6
20260901033404 59 175 2.0 5.0 0.00 0.17 0.00 95 1015.6
20260901032404 59 234 1.0 6.0 0.00 0.17 0.00 95 1015.6
20260901031405 60 162 1.0 4.0 0.00 0.17 0.00 95 1015.6
20260901030404 60 232 2.0 5.0 0.00 0.17 0.00 95 1015.6
20260901025409 60 259 2.0 7.0 0.00 0.17 0.00 96 1015.5
20260901024409 59 198 2.0 6.0 0.00 0.17 0.00 96 1015.6
20260901022410 59 250 1.0 5.0 0.00 0.17 0.00 96 1015.5
20260901021409 59 255 3.0 7.0 0.00 0.17 0.00 96 1015.6
20260901020409 59 191 3.0 8.0 0.00 0.17 0.00 96 1015.4
20260901015410 59 209 3.0 6.0 0.00 0.17 0.00 96 1015.4
20260901014409 59 221 3.0 8.0 0.00 0.17 0.00 96 1015.3
20260901013409 58 247 3.0 7.0 0.00 0.17 0.00 96 1015.2
20260901012409 58 249 2.0 4.0 0.00 0.17 0.00 96 1015.2
20260901011411 58 229 2.0 5.0 0.00 0.17 0.00 96 1015.1
20260901010409 58 214 2.0 4.0 0.00 0.17 0.00 96 1015.0